Location: Vigevano
(45.3170°N, 8.8500°E)
Time: 05:57:07
(UTC+02:00)

ISS - Visible Passes

Search period start: 25 July 2024 00:00
Search period end: 04 August 2024 00:00
Orbit: 409 x 423 km, 51.6° (Epoch: 24 July)

Date Brightness Start Highest point End Pass type
(mag) Time Alt. Az. Time Alt. Az. Time Alt. Az.
25 Jul -3.5 22:13:59 10° WNW 22:17:14 58° SW 22:19:15 21° SE visible
26 Jul -1.5 23:03:02 10° W 23:04:56 14° SW 23:05:16 14° SW visible
27 Jul -2.1 22:13:43 10° W 22:16:26 23° SW 22:18:25 14° S visible
30 Jul -1.3 21:24:37 10° W 21:26:43 16° SW 21:28:48 10° S visible
